모두
San Ysidro Ranch Airport (Catarina, TX) TS40 기상
There is no TAF data available at TS40 or any nearby airports.
There is no METAR data available at TS40. Showing METAR data for KCZT (16 mi 서북).
최근 CZT METAR 이력(TS40에 대한 데이터 없음)
| Date | Time (CDT) | Flight Rules | Wind Dir. | Speed | Type | Height AGL (ft) | Visibility | Temp (°C) | Temp (°F) | Dew Point (°C) | Dew Point (°F) | Rel. Humid. | Pressure | Density Altitude | Remarks |
|---|---|---|---|---|---|---|---|---|---|---|---|---|---|---|---|
| 04-9월 | 17:15 | VFR | 110° | 8 kt | 10 miles | 40° | 104° | 19° | 66° | 30% | 29.81 in Hg | 3,708 ft | |||
| 04-9월 | 16:55 | VFR | 80° | 7 kt | 10 miles | 39° | 102° | 19° | 66° | 31% | 29.82 in Hg | 3,578 ft | |||
| 04-9월 | 16:15 | VFR | 160° | 5 kt | 10 miles | 38° | 100° | 21° | 69° | 38% | 29.83 in Hg | 3,448 ft | |||
| 04-9월 | 15:55 | VFR | 80° | 9 kt | 10 miles | 38° | 100° | 22° | 71° | 40% | 29.84 in Hg | 3,438 ft | |||
| 04-9월 | 15:15 | VFR | 100° | 5 kt | 10 miles | 37° | 98° | 23° | 73° | 45% | 29.86 in Hg | 3,298 ft | |||
| 04-9월 | 14:55 | VFR | 100° | 7 kt | 10 miles | 37° | 98° | 23° | 73° | 45% | 29.87 in Hg | 3,288 ft | |||
| 04-9월 | 14:15 | VFR | 90° | 7 kt | 10 miles | 36° | 96° | 23° | 73° | 47% | 29.89 in Hg | 3,148 ft | |||
| 04-9월 | 13:55 | VFR | 150° | 6 kt | 10 miles | 35° | 95° | 23° | 73° | 50% | 29.90 in Hg | 3,018 ft | |||
| 04-9월 | 13:35 | VFR | 70° | 7 kt | 10 miles | 34° | 93° | 23° | 73° | 53% | 29.91 in Hg | 2,888 ft | |||
| 04-9월 | 13:15 | VFR | 100° | 6 kt | 10 miles | 33° | 91° | 23° | 73° | 56% | 29.92 in Hg | 2,758 ft | |||
| 04-9월 | 12:55 | VFR | 100° | 4 kt | 10 miles | 32° | 89° | 23° | 73° | 59% | 29.93 in Hg | 2,628 ft | |||
| 04-9월 | 12:15 | VFR | 100° | 4 kt | 10 miles | 31° | 87° | 23° | 73° | 63% | 29.95 in Hg | 2,488 ft | |||
| 04-9월 | 11:55 | VFR | 90° | 5 kt | 10 miles | 30° | 86° | 24° | 75° | 70% | 29.95 in Hg | 2,368 ft | |||
| 04-9월 | 11:35 | VFR | 80° | 7 kt | 10 miles | 30° | 86° | 24° | 75° | 70% | 29.95 in Hg | 2,368 ft | |||
| 04-9월 | 11:15 | VFR | 90° | 7 kt | 10 miles | 30° | 86° | 25° | 77° | 75% | 29.95 in Hg | 2,368 ft | |||
| 04-9월 | 10:55 | VFR | 110° | 5 kt | 10 miles | 28° | 82° | 26° | 78° | 89% | 29.94 in Hg | 2,138 ft | |||
| 04-9월 | 10:35 | VFR | 100° | 3 kt | 10 miles | 28° | 82° | 26° | 78° | 89% | 29.94 in Hg | 2,138 ft | |||
| 04-9월 | 10:15 | VFR | 100° | 6 kt | 10 miles | 27° | 80° | 26° | 78° | 94% | 29.94 in Hg | 2,018 ft | |||
| 04-9월 | 09:55 | VFR | 100° | 5 kt | 10 miles | 27° | 80° | 26° | 78° | 94% | 29.94 in Hg | 2,018 ft | |||
| 04-9월 | 09:15 | VFR | 100° | 7 kt | 10 miles | 27° | 80° | 27° | 80° | 100% | 29.93 in Hg | 2,028 ft | |||
| 04-9월 | 08:55 | VFR | 100° | 7 kt | 10 miles | 27° | 80° | 27° | 80° | 100% | 29.93 in Hg | 2,028 ft | |||
| 04-9월 | 08:15 | VFR | 110° | 5 kt | 10 miles | 26° | 78° | 26° | 78° | 100% | 29.92 in Hg | 1,918 ft | |||
| 04-9월 | 07:55 | VFR | 110° | 4 kt | 10 miles | 26° | 78° | 26° | 78° | 100% | 29.91 in Hg | 1,928 ft | |||
| 04-9월 | 07:35 | VFR | 100° | 4 kt | 10 miles | 25° | 77° | 25° | 77° | 100% | 29.90 in Hg | 1,818 ft |
로그인
| 귀하의 브라우저는 지원되지 않습니다.. 브라우저를 업그레이드하세요 |
